Flag for U.S.A. Weather past 2 weeks in Daly City, California, U.S.A.

Now
63 °F

Scattered clouds.


Feels Like: 63 °F
Forecast: 60 / 71 °F
Wind: 21 mph from Northwest

Location: San Francisco International Airport

Current Time: Jul 29, 2014 at 8:27:57 PM

Latest Report: Jul 29, 2014 at 7:56 PM


Visibility: 10 mi

Pressure: 29.98 "Hg

Humidity: 81%

Dew point: 57 °F

Location of Daly CityLocation

Historic Weather in Daly City — Graph

°F

Daly City temperature yesterday

Maximum temperature yesterday: 73 °F (at 2:56 PM)
Minimum temperature yesterday: 61 °F (at 3:56 AM)
Average temperature yesterday: 66 °F

Past Weeks' High & Low Weather Summary

 TemperatureHumidityPressure
High87 °F (Jul 25, 1:56 PM)93% (Jul 15, 12:56 AM)30.14 "Hg (Jul 15, 12:56 AM)
Low58 °F (Jul 20, 5:56 AM)38% (Jul 25, 3:56 PM)29.83 "Hg (Jul 25, 5:56 PM)
Average68 °F73%29.98 "Hg
* Reported Jul 14 6:56 PM — Jul 29 6:56 PM, Daly City, Weather by CustomWeather, © 2014

Note: Actual official high and low records may vary slightly from our data, if they occured in-between our weather recording intervals... More about our weather records

Advertising

Daly City weather history for previous 24 hours

 ConditionsComfort  
Time TempWeatherWind HumidityBarometerVisibility
6:56 PM
Jul 29
64 °FScattered clouds.21 mph78%29.98 "Hg10 mi
5:56 PM68 °FScattered clouds.21 mph68%29.98 "Hg10 mi
4:56 PM70 °FScattered clouds.22 mph64%29.98 "Hg10 mi
3:56 PM70 °FScattered clouds.21 mph66%29.99 "Hg10 mi
2:56 PM71 °FScattered clouds.22 mph61%30.01 "Hg10 mi
1:56 PM72 °FPassing clouds.21 mph59%30.02 "Hg10 mi
12:56 PM71 °FPassing clouds.17 mph61%30.03 "Hg10 mi
11:56 AM69 °FPassing clouds.20 mph68%30.04 "Hg10 mi
10:56 AM70 °FScattered clouds.13 mph68%30.05 "Hg10 mi
9:56 AM69 °FPassing clouds.8 mph70%30.05 "Hg10 mi
8:56 AM66 °FPassing clouds.6 mph78%30.05 "Hg10 mi
7:56 AM63 °FScattered clouds.8 mph87%30.06 "Hg10 mi
6:56 AM61 °FPassing clouds.8 mph90%30.05 "Hg10 mi
5:56 AM60 °FPassing clouds.10 mph93%30.04 "Hg10 mi
4:56 AM61 °FPassing clouds.9 mph90%30.04 "Hg10 mi
3:56 AM61 °FPassing clouds.9 mph90%30.05 "Hg10 mi
2:56 AM61 °FPassing clouds.12 mph87%30.04 "Hg10 mi
1:56 AM61 °FPassing clouds.13 mph87%30.03 "Hg10 mi
12:56 AM61 °FPassing clouds.10 mph87%30.04 "Hg10 mi
11:56 PM
Jul 28
62 °FPassing clouds.12 mph83%30.05 "Hg10 mi
10:56 PM62 °FPassing clouds.12 mph83%30.05 "Hg10 mi
9:56 PM62 °FPassing clouds.13 mph83%30.04 "Hg10 mi
8:56 PM63 °FBroken clouds.20 mph81%30.02 "Hg10 mi
Weather by CustomWeather, © 2014

See weather overviewHow to use our weather pages